Retour au catalogue

STARLINK-30408

ActifCommunicationsVLEO
NORAD 57824·PAYLOAD·🇺🇸 United States

Lancé Sep 9, 2023 depuis Cape Canaveral Space Force Station

Loading…

Prochains Passages (prochaines 24 heures)

TLE

FraisSource: CelesTrak SupGP

Époque: Sep 15, 2026, 02:31 UTC

1 57824C 23138S   26258.10534722 -.00018518  00000+0 -67079-3 0  2584
2 57824  42.9996 244.2375 0001176 261.4818 313.1691 15.27585110    19

Suivez STARLINK-30408 en temps réel avec AllMySat

Download on the App Store